Location: French Creek State Gamelands
(40.1750°N, 75.7969°W)
Time: 15:52:55
(UTC-05:00)

ISS - All Passes

Search period start: 01 March 2015 00:00
Search period end: 11 March 2015 01:00
Orbit: 397 x 407 km, 51.6° (Epoch: 01 March)

Date Brightness Start Highest point End Pass type
(mag) Time Alt. Az. Time Alt. Az. Time Alt. Az.
01 Mar - 09:19:11 10° SW 09:22:22 60° SE 09:25:34 10° ENE daylight
01 Mar - 10:56:28 10° WNW 10:59:02 21° NNW 11:01:35 10° NNE daylight
01 Mar - 12:35:23 10° NNW 12:36:24 11° N 12:37:25 10° NNE daylight
01 Mar - 14:11:43 10° NNW 14:13:52 16° NNE 14:16:03 10° ENE daylight
01 Mar - 15:47:31 10° NW 15:50:45 74° NE 15:54:00 10° ESE daylight
01 Mar - 17:25:43 10° WSW 17:26:49 11° SW 17:27:47 10° SSW daylight
02 Mar - 08:26:39 10° SSW 08:29:28 29° SE 08:32:21 10° ENE daylight
02 Mar - 10:02:55 10° W 10:05:52 32° NNW 10:08:49 10° NE daylight
02 Mar - 11:41:40 10° NW 11:43:05 12° N 11:44:28 10° NNE daylight
02 Mar - 13:18:58 10° NNW 13:20:36 13° NNE 13:22:14 10° NE daylight
02 Mar - 14:54:37 10° NW 14:57:42 39° NNE 15:00:47 10° ESE daylight
02 Mar - 16:31:24 10° W 16:34:00 22° SW 16:36:33 10° S daylight
03 Mar - 07:34:45 10° SSE 07:36:38 15° SE 07:38:35 10° E daylight
03 Mar - 09:09:36 10° WSW 09:12:46 55° NW 09:15:57 10° NE daylight
03 Mar - 10:47:49 10° NW 10:49:46 15° NNW 10:51:40 10° NNE daylight
03 Mar - 12:26:07 10° NNW 12:27:15 11° N 12:28:24 10° NNE daylight
03 Mar - 14:01:48 10° NNW 14:04:33 25° NNE 14:07:18 10° E daylight
03 Mar - 15:37:59 10° WNW 15:41:06 44° SW 15:44:11 10° SSE daylight
04 Mar - 08:16:31 10° SW 08:19:44 74° SE 08:22:57 10° NE daylight
04 Mar - 09:54:01 10° WNW 09:56:28 19° NNW 09:58:53 10° NNE daylight
04 Mar - 11:32:53 10° NNW 11:33:52 11° N 11:34:50 10° NNE daylight
04 Mar - 13:09:01 10° NNW 13:11:18 18° NNE 13:13:36 10° ENE daylight
04 Mar - 14:44:51 10° NW 14:48:06 89° NE 14:51:21 10° SE daylight
05 Mar - 07:23:47 10° SSW 07:26:45 35° SE 07:29:44 10° ENE daylight
05 Mar - 09:00:21 10° W 09:03:12 28° NNW 09:06:04 10° NE daylight
05 Mar - 10:39:10 10° NNW 10:40:27 12° N 10:41:43 10° NNE daylight
05 Mar - 12:16:12 10° NNW 12:17:57 14° NNE 12:19:44 10° NE daylight
05 Mar - 13:51:52 10° NW 13:55:01 46° NNE 13:58:09 10° ESE daylight
05 Mar - 15:28:52 10° W 15:31:13 18° SW 15:33:31 10° S daylight
06 Mar - 06:31:34 10° S 06:33:48 18° SE 06:36:06 10° E daylight
06 Mar - 08:06:52 10° WSW 08:10:01 47° NNW 08:13:09 10° NE daylight
06 Mar - 09:45:15 10° NW 09:47:03 14° NNW 09:48:49 10° NNE daylight
06 Mar - 11:23:18 10° NNW 11:24:33 12° N 11:25:48 10° NNE daylight
06 Mar - 12:58:57 10° NW 13:01:48 27° NNE 13:04:39 10° E daylight
06 Mar - 14:35:15 10° WNW 14:38:16 36° SW 14:41:16 10° SSE daylight
07 Mar - 07:13:38 10° SW 07:16:52 89° SSE 07:20:06 10° NE daylight
07 Mar - 08:51:20 10° WNW 08:53:40 18° NNW 08:55:58 10° NNE daylight
07 Mar - 10:30:07 10° NNW 10:31:05 11° N 10:32:03 10° NNE daylight
07 Mar - 12:06:05 10° NNW 12:08:29 19° NNE 12:10:55 10° ENE daylight
07 Mar - 13:41:59 10° NW 13:45:14 76° SW 13:48:27 10° SE daylight
08 Mar - 07:20:43 10° SSW 07:23:47 42° SE 07:26:52 10° ENE daylight
08 Mar - 08:57:32 10° W 09:00:18 25° NNW 09:03:04 10° NNE daylight
08 Mar - 10:36:26 10° NNW 10:37:35 11° N 10:38:45 10° NNE daylight
08 Mar - 12:13:12 10° NNW 12:15:04 14° NNE 12:17:00 10° NE daylight
08 Mar - 13:48:53 10° NW 13:52:04 54° NNE 13:55:15 10° ESE daylight
08 Mar - 15:26:10 10° W 15:28:13 15° SW 15:30:10 10° S daylight
09 Mar - 06:28:15 10° S 06:30:45 21° SE 06:33:17 10° E visible
09 Mar - 08:03:55 10° WSW 08:07:00 40° NNW 08:10:05 10° NE daylight
09 Mar - 09:42:26 10° NW 09:44:06 13° NNW 09:45:44 10° NNE daylight
09 Mar - 11:20:14 10° NNW 11:21:36 12° N 11:22:59 10° NE daylight
09 Mar - 12:55:52 10° NW 12:58:48 31° NNE 13:01:44 10° E daylight
09 Mar - 14:32:18 10° WNW 14:35:12 30° SW 14:38:04 10° SSE daylight
10 Mar - 05:37:03 10° SE 05:37:45 11° SE 05:38:33 10° ESE visible
10 Mar - 07:10:32 10° WSW 07:13:46 77° NW 07:17:00 10° NE daylight
10 Mar - 08:48:25 10° WNW 08:50:38 17° NNW 08:52:48 10° NNE daylight
10 Mar - 10:27:05 10° NNW 10:28:04 11° N 10:29:04 10° NNE daylight
10 Mar - 12:02:55 10° NNW 12:05:25 21° NNE 12:07:59 10° ENE daylight
10 Mar - 13:38:53 10° WNW 13:42:05 63° SW 13:45:17 10° SE daylight
